DW4207 Weather Reports


Display with metric or nautical units.
time (UTC)temp
F
wind
direction
speed
MPH
gust
MPH
rain 1hr
in
rain 24hr
in
rain mn
in
humidity
%
barometer
mb
20260901224024 91 210 2.0 6.0 0.00 0.00 0.00 60 1016.1
20260901223003 91 223 2.0 5.0 0.00 0.00 0.00 62 1016.1
20260901222003 91 226 3.0 9.0 0.00 0.00 0.00 61 1016.0
20260901221003 92 211 3.0 7.0 0.00 0.00 0.00 60 1016.1
20260901220024 92 243 3.0 6.0 0.00 0.00 0.00 59 1016.1
20260901215024 92 220 4.0 8.0 0.00 0.00 0.00 58 1016.0
20260901214024 92 214 4.0 8.0 0.00 0.00 0.00 58 1016.0
20260901213003 92 214 3.0 8.0 0.00 0.00 0.00 58 1016.1
20260901212003 93 221 3.0 9.0 0.00 0.00 0.00 59 1016.2
20260901211003 93 229 3.0 7.0 0.00 0.00 0.00 61 1016.2
20260901210003 93 217 3.0 9.0 0.00 0.00 0.00 61 1016.2
20260901205003 93 230 3.0 8.0 0.00 0.00 0.00 59 1016.2
20260901204003 93 247 3.0 8.0 0.00 0.00 0.00 59 1016.2
20260901203003 93 243 3.0 9.0 0.00 0.00 0.00 58 1016.2
20260901202024 93 213 4.0 9.0 0.00 0.00 0.00 61 1016.2
20260901201003 93 216 4.0 9.0 0.00 0.00 0.00 58 1016.2
20260901200003 92 212 5.0 11.0 0.00 0.00 0.00 59 1016.2
20260901195003 93 223 4.0 11.0 0.00 0.00 0.00 60 1016.2
20260901194003 92 219 4.0 11.0 0.00 0.00 0.00 59 1016.3
20260901193024 93 229 5.0 9.0 0.00 0.00 0.00 61 1016.4
20260901192003 92 213 6.0 12.0 0.00 0.00 0.00 59 1016.5
20260901191003 92 224 5.0 15.0 0.00 0.00 0.00 57 1016.6
20260901190003 92 218 5.0 16.0 0.00 0.00 0.00 59 1016.7
20260901185003 93 227 3.0 8.0 0.00 0.00 0.00 60 1016.7
20260901184003 92 217 4.0 9.0 0.00 0.00 0.00 57 1016.7
20260901183003 92 208 5.0 12.0 0.00 0.00 0.00 60 1016.7
20260901182003 92 229 4.0 11.0 0.00 0.00 0.00 58 1016.9
20260901181003 92 224 5.0 12.0 0.00 0.00 0.00 57 1016.9
20260901180003 91 198 4.0 9.0 0.00 0.00 0.00 58 1016.9
20260901175003 91 202 6.0 11.0 0.00 0.00 0.00 58 1017.0
20260901174024 91 212 4.0 11.0 0.00 0.00 0.00 58 1017.0
20260901173003 91 222 4.0 9.0 0.00 0.00 0.00 60 1017.1
20260901172003 91 198 4.0 10.0 0.00 0.00 0.00 60 1017.2
20260901171003 90 210 4.0 10.0 0.00 0.00 0.00 61 1017.2
20260901170003 90 210 3.0 8.0 0.00 0.00 0.00 59 1017.4
20260901165004 90 196 3.0 10.0 0.00 0.00 0.00 61 1017.5
20260901164003 89 211 4.0 10.0 0.00 0.00 0.00 61 1017.6
20260901163003 90 221 4.0 9.0 0.00 0.00 0.00 63 1017.7
20260901162003 89 181 3.0 8.0 0.00 0.00 0.00 63 1017.7
20260901161003 88 223 4.0 9.0 0.00 0.00 0.00 63 1017.7
20260901160003 88 211 4.0 11.0 0.00 0.00 0.00 65 1017.8
20260901155003 88 194 4.0 7.0 0.00 0.00 0.00 64 1017.8
20260901154003 87 208 4.0 8.0 0.00 0.00 0.00 67 1017.9
20260901153024 87 208 4.0 9.0 0.00 0.00 0.00 67 1017.8
20260901152003 86 227 4.0 9.0 0.00 0.00 0.00 65 1017.8
20260901151003 86 214 4.0 9.0 0.00 0.00 0.00 66 1017.8
20260901150003 86 208 3.0 8.0 0.00 0.00 0.00 67 1017.7
20260901145003 85 217 4.0 10.0 0.00 0.00 0.00 68 1017.9
20260901144003 85 215 5.0 9.0 0.00 0.00 0.00 67 1017.9
20260901143024 84 191 3.0 8.0 0.00 0.00 0.00 69 1017.9
20260901142003 84 197 4.0 8.0 0.00 0.00 0.00 71 1018.0
20260901141003 83 218 3.0 8.0 0.00 0.00 0.00 72 1018.0
20260901140024 82 213 4.0 9.0 0.00 0.00 0.00 72 1018.0
20260901135003 82 209 4.0 9.0 0.00 0.00 0.00 73 1018.0
20260901134024 81 217 3.0 9.0 0.00 0.00 0.00 75 1018.0
20260901133003 81 216 3.0 8.0 0.00 0.00 0.00 76 1018.1
20260901132003 80 203 4.0 8.0 0.00 0.00 0.00 75 1018.1
20260901131003 80 213 4.0 11.0 0.00 0.00 0.00 76 1018.3
20260901130003 79 202 3.0 8.0 0.00 0.00 0.00 78 1018.3
20260901125003 78 212 3.0 8.0 0.00 0.00 0.00 78 1018.3
20260901124024 78 205 3.0 7.0 0.00 0.00 0.00 79 1018.2
20260901123024 77 201 3.0 5.0 0.00 0.00 0.00 79 1018.2
20260901122003 77 193 1.0 5.0 0.00 0.00 0.00 80 1018.1
20260901121003 76 185 1.0 5.0 0.00 0.00 0.00 80 1018.0
20260901120003 76 178 0.0 2.0 0.00 0.00 0.00 81 1018.0
20260901115003 75 205 0.0 4.0 0.00 0.00 0.00 81 1017.9
20260901114003 76 206 1.0 4.0 0.00 0.00 0.00 80 1017.8
20260901113003 76 188 1.0 3.0 0.00 0.00 0.00 80 1017.7
20260901112003 76 207 1.0 4.0 0.00 0.00 0.00 80 1017.7
20260901111024 76 207 1.0 4.0 0.00 0.00 0.00 80 1017.5
20260901110003 76 195 1.0 3.0 0.00 0.00 0.00 80 1017.5
20260901105004 76 210 1.0 4.0 0.00 0.00 0.00 80 1017.4
20260901104004 76 215 2.0 4.0 0.00 0.00 0.00 79 1017.4
20260901103025 76 221 2.0 4.0 0.00 0.00 0.00 79 1017.3
20260901102004 76 216 2.0 5.0 0.00 0.00 0.00 79 1017.3
20260901101004 76 209 3.0 6.0 0.00 0.00 0.00 79 1017.3
20260901100004 76 203 1.0 4.0 0.00 0.00 0.00 79 1017.2
20260901095004 77 207 2.0 5.0 0.00 0.00 0.00 79 1017.2
20260901094004 77 202 2.0 5.0 0.00 0.00 0.00 79 1017.2
20260901093004 77 208 2.0 5.0 0.00 0.00 0.00 78 1017.1
20260901092025 77 215 2.0 6.0 0.00 0.00 0.00 78 1017.0
20260901091025 77 220 2.0 7.0 0.00 0.00 0.00 78 1016.9
20260901090004 78 218 4.0 9.0 0.00 0.00 0.00 78 1017.0
20260901085025 77 214 2.0 7.0 0.00 0.00 0.00 79 1017.0
20260901084004 77 215 2.0 7.0 0.00 0.00 0.00 79 1016.8
20260901083004 77 217 2.0 6.0 0.00 0.00 0.00 79 1016.9
20260901082004 77 215 3.0 7.0 0.00 0.00 0.00 78 1016.8
20260901081004 77 212 3.0 6.0 0.00 0.00 0.00 78 1016.7
20260901080025 77 218 3.0 6.0 0.00 0.00 0.00 78 1016.7
20260901075004 78 211 3.0 6.0 0.00 0.00 0.00 78 1016.8
20260901074004 78 213 3.0 6.0 0.00 0.00 0.00 78 1016.8
20260901073004 78 217 3.0 7.0 0.00 0.00 0.00 78 1016.7
20260901072004 78 218 3.0 6.0 0.00 0.00 0.00 78 1016.8
20260901071004 78 215 2.0 5.0 0.00 0.00 0.00 78 1016.9
20260901070004 78 217 2.0 5.0 0.00 0.00 0.00 78 1017.0
20260901065004 78 208 3.0 7.0 0.00 0.00 0.00 77 1017.0
20260901064004 78 204 3.0 6.0 0.00 0.00 0.00 77 1017.0
20260901063004 78 213 3.0 7.0 0.00 0.00 0.00 77 1017.1
20260901062004 79 194 2.0 5.0 0.00 0.00 0.00 76 1017.1
20260901061004 79 191 2.0 7.0 0.00 0.00 0.00 76 1017.1
20260901060004 79 188 2.0 6.0 0.00 0.00 0.00 76 1017.1
20260901055004 79 202 2.0 5.0 0.00 0.00 0.00 76 1017.2
20260901054004 79 178 2.0 5.0 0.00 0.00 0.00 76 1017.2
20260901053004 79 167 1.0 5.0 0.00 0.00 0.00 77 1017.2
20260901052004 79 164 1.0 4.0 0.00 0.00 0.00 77 1017.2
20260901051025 80 175 2.0 6.0 0.00 0.00 0.00 77 1017.2
20260901050004 80 180 2.0 5.0 0.00 0.00 0.00 77 1017.1
20260901045004 80 204 2.0 8.0 0.00 0.00 0.00 77 1017.0
20260901044004 80 187 3.0 7.0 0.00 0.00 0.00 76 1016.8
20260901043004 80 167 3.0 9.0 0.00 0.00 0.00 76 1016.6
20260901042004 80 165 3.0 6.0 0.00 0.00 0.00 77 1016.6
20260901041004 80 182 2.0 5.0 0.00 0.00 0.00 78 1016.7
20260901040005 80 183 1.0 4.0 0.00 0.00 0.00 77 1016.8
20260901035004 80 163 2.0 5.0 0.00 0.00 0.00 77 1016.9
20260901034004 80 167 2.0 5.0 0.00 0.00 0.00 78 1017.0
20260901033004 80 180 1.0 4.0 0.00 0.00 0.00 78 1017.1
20260901032004 80 181 0.0 2.0 0.00 0.00 0.00 79 1017.2
20260901031025 79 0 0.0 0.0 0.00 0.00 0.00 79 1017.2
20260901030004 80 222 0.0 1.0 0.00 0.00 0.00 78 1017.4
20260901025004 80 225 0.0 2.0 0.00 0.00 0.00 78 1017.3
20260901024025 79 179 0.0 2.0 0.00 0.00 0.00 81 1017.2
20260901023004 78 0 0.0 0.0 0.00 0.00 0.00 82 1017.3
20260901022004 78 211 0.0 1.0 0.00 0.00 0.00 80 1017.3
20260901021004 79 211 0.0 2.0 0.00 0.00 0.00 79 1017.3
20260901020004 80 234 0.0 2.0 0.00 0.00 0.00 78 1017.1
20260901015025 81 201 0.0 2.0 0.00 0.00 0.00 77 1017.0
20260901014004 79 0 0.0 0.0 0.00 0.00 0.00 80 1016.8
20260901013004 80 0 0.0 0.0 0.00 0.00 0.00 81 1016.7
20260901012025 80 0 0.0 0.0 0.00 0.00 0.00 77 1016.7
20260901011004 79 0 0.0 1.0 0.00 0.00 0.00 81 1016.5
20260901010004 79 0 0.0 0.0 0.00 0.00 0.00 82 1016.3
20260901005004 79 0 0.0 0.0 0.00 0.00 0.00 80 1016.2
20260901004004 80 0 0.0 0.0 0.00 0.00 0.00 76 1016.3
20260901003004 81 0 0.0 0.0 0.00 0.00 0.00 76 1016.3
20260901002025 83 0 0.0 0.0 0.00 0.00 0.00 72 1016.2
20260901001004 84 186 0.0 2.0 0.00 0.00 0.00 68 1016.1
20260901000004 85 198 1.0 3.0 0.00 0.00 0.00 66 1016.1
20260831235004 85 204 1.0 4.0 0.00 0.00 0.00 66 1015.9
20260831234004 86 205 1.0 5.0 0.00 0.00 0.00 64 1016.1
20260831233004 87 178 1.0 5.0 0.00 0.00 0.00 63 1015.9
20260831232004 87 187 3.0 6.0 0.00 0.00 0.00 62 1016.0
20260831231004 87 202 3.0 8.0 0.00 0.00 0.00 62 1016.0
20260831230025 88 202 3.0 11.0 0.00 0.00 0.00 61 1016.1
20260831225004 88 211 4.0 10.0 0.00 0.00 0.00 61 1016.1